Showing default

ELARA 1, 64539

Orbit data source: Space-Track

ELARA 1, 64539 is a payload satellite owned by Gilmour Space (AU) in SSO that was launched on Mon, 23 Jun 2025 UTC via an FALCON 9 launch vehicle from the Air Force Western Test Range (AFWTR). Payload-class satellites include a variety of spacecraft equipped with specific instruments for various scientific and technological missions. These include communications satellites like Starlink; space stations such as the ISS; scientific satellites like the Hubble; Earth observation satellites from companies like Planet Labs, Umbra, and HawkEye 360; GPS; miniature CubeSats for education and research; and military/defense satellites.

Loading next visibility...
Identifier
64539, 2025-135M
Orbit
SSO
Country
Flag of AUAU / AUS
Related business
Manufacturer
Gilmour Space
Mission
Operational Commercial Earth Obs Sci
Bus & Motor
ELARASAT, Unknown motor
Mass
100 kg wet, 100 kg dry
Launch date (UTC)
2025-06-23 (8 months ago)
Launch vehicle
FALCON 9
Launch site
Air Force Western Test Range (AFWTR)
Object type
Payload
Rocket body
Debris
Shape & HBR
Box, 0.3 m
Radar Cross Section
0.375 m², Large (>1 m²)

Expand to show TLE details & history
Last TLE update: 6 hours ago

TLE from 6 hours ago
0 ELARA 1
1 64539U 25135M   26062.74469994  .00013871  00000-0  61399-3 0  9992
2 64539  97.4604 178.9668 0003806 165.5626 194.5719 15.21767987 38833
Epoch: 2026-03-03T17:52Z
TLE epoch observation values (Epoch: 2026-03-03T17:52:22.074Z)
Latitude
-0.00008°
Longitude
109.35548°
Altitude
506.133 km
Speed
7.61 km/s
True Right ascension
11h 55m 52s
True Declination
0° 00' 00"
Sunlit
Object was in full shadow at epoch
Visualization orbit readout
Latitude
Unknown
Longitude
Unknown
Altitude
Unknown
Speed
Unknown
Apparent Right ascension
Unknown
Apparent Declination
Unknown
Sunlit
N/A
Visualization observer readout
Local Sidereal Time
03:50:22
Azimuth
Unknown
Elevation
Unknown
Doppler factor
Unknown
Orbital elements
Apogee altitude
500.09 km
Perigee altitude
494.857 km
Semi-major axis
6,875.611 km
Eccentricity
0.00038
Inclination
97.4604°
RAAN
178.9668°
Arg. of periapsis
165.5626°
True anomaly
194.56093°
Mean anomaly
194.5719°
Eccentric anomaly
194.56642°
Mean motion
3.80694 °/min
Orbital period
94.56 mins
BSTAR
0.00061399
Loading maneuver chart data...
Computing Atmospheric mass density...
Loading historical data...
Loading historical data...
Loading historical data...
Loading historical data...
Loading historical data...
Loading historical data...
Loading historical data...

Documentation

Showing up to 5 results
|